Weather History for KMQS - February, 2014

Change the Weather History Date:

Wednesday, February 26, 2014

  Actual Average (KLNS) Record (KLNS)
Temperature  
Mean Temperature 22 °F -  
Max Temperature 30 °F 41 °F 62 °F (2002)
Min Temperature 14 °F 26 °F 8 °F (1990)
Degree Days  
Heating Degree Days 43    
Moisture  
Dew Point 10 °F    
Average Humidity 58    
Maximum Humidity 100    
Minimum Humidity 31    
Precipitation  
Precipitation 0.88 in - - ()
Sea Level Pressure  
Sea Level Pressure 29.90 in    
Wind  
Wind Speed 5 mph (WNW)    
Max Wind Speed 25 mph    
Max Gust Speed 31 mph    
Visibility 8 miles    
Events Snow    
Averages and records for this station are not official NWS values.
T = Trace of Precipitation, MM = Missing Value Source: NWS Daily Summary

Daily Weather History Graph

Daily Weather History Graph

Search for Another Location

Airport or City:

Trip Planner

Search our weather history database for the weather conditions in past years. The results will help you decide how hot, cold, wet, or windy it might be!

Date:

Astronomy

Feb. 26, 2014 Rise Set
Actual Time 6:41 AM EST 5:52 PM EST
Civil Twilight 6:13 AM EST 6:19 PM EST
Nautical Twilight 5:42 AM EST 6:50 PM EST
Astronomical Twilight 5:11 AM EST 7:22 PM EST
Moon 4:25 AM EST (2/26) 3:04 PM EST (2/26)
Length of Visible Light 12h 05m
Length of Day
11h 10m
Waning Crescent, 10% of the Moon is Illuminated
Feb 26
Waning Crescent
Mar 1
New
Mar 8
First Quarter
Mar 16
Full
Mar 23
Last Quarter

Hourly Weather History & Observations

Time (EST) Temp. Windchill Dew Point Humidity Pressure Visibility Wind Dir Wind Speed Gust Speed Precip Events Conditions
12:10 AM 24.8 °F - 12.2 °F 59% 29.98 in 10.0 mi Calm Calm - N/A   Mostly Cloudy
12:30 AM 26.6 °F 22.6 °F 12.2 °F 55% 29.98 in 10.0 mi WSW 3.5 mph - N/A   Overcast
12:50 AM 26.6 °F - 12.2 °F 55% 29.98 in 10.0 mi Calm Calm - N/A   Mostly Cloudy
1:10 AM 24.8 °F 20.5 °F 12.2 °F 59% 29.97 in 10.0 mi South 3.5 mph - N/A   Scattered Clouds
1:30 AM 24.8 °F 20.5 °F 12.2 °F 59% 29.97 in 10.0 mi SSW 3.5 mph - N/A   Clear
1:50 AM 24.8 °F - 12.2 °F 59% 29.96 in 10.0 mi Calm Calm - N/A   Clear
2:10 AM 24.8 °F - 14.0 °F 64% 29.95 in 10.0 mi Calm Calm - N/A   Clear
2:30 AM 24.8 °F - 14.0 °F 64% 29.94 in 10.0 mi Calm Calm - N/A   Clear
2:50 AM 24.8 °F - 14.0 °F 64% 29.93 in 10.0 mi Calm Calm - N/A   Clear
3:10 AM 24.8 °F 20.5 °F 14.0 °F 64% 29.93 in 10.0 mi SSW 3.5 mph - N/A   Clear
3:30 AM 24.8 °F 20.5 °F 14.0 °F 64% 29.92 in 10.0 mi South 3.5 mph - N/A   Clear
3:50 AM 24.8 °F - 14.0 °F 64% 29.91 in 10.0 mi Calm Calm - N/A   Clear
4:10 AM 24.8 °F - 14.0 °F 64% 29.91 in 10.0 mi Calm Calm - N/A   Clear
4:30 AM 24.8 °F - 14.0 °F 64% 29.90 in 10.0 mi Calm Calm - N/A   Clear
4:50 AM 24.8 °F 20.5 °F 15.8 °F 69% 29.89 in 10.0 mi SSE 3.5 mph - N/A   Clear
5:10 AM 24.8 °F - 15.8 °F 69% 29.89 in 10.0 mi Calm Calm - N/A   Partly Cloudy
5:30 AM 26.6 °F - 17.6 °F 69% 29.90 in 10.0 mi Calm Calm - N/A   Partly Cloudy
5:50 AM 26.6 °F - 15.8 °F 64% 29.90 in 10.0 mi Calm Calm - N/A Snow Light Snow
6:10 AM 26.6 °F - 17.6 °F 69% 29.90 in 5.0 mi Calm Calm - N/A Snow Light Snow
6:30 AM 24.8 °F 20.5 °F 19.4 °F 80% 29.90 in 2.5 mi South 3.5 mph - 0.01 in Snow Light Snow
6:50 AM 24.8 °F - 21.2 °F 86% 29.89 in 1.8 mi Calm Calm - 0.04 in Snow Light Snow
7:10 AM 24.8 °F - 23.0 °F 93% 29.91 in 2.0 mi Calm Calm - N/A Snow Light Snow
7:30 AM 24.8 °F - 23.0 °F 93% 29.91 in 2.0 mi Calm Calm - 0.05 in Snow Light Snow
7:50 AM 24.8 °F - 23.0 °F 93% 29.91 in 2.0 mi Calm Calm - 0.13 in Snow Light Snow
8:10 AM 26.6 °F - 24.8 °F 93% 29.92 in 1.0 mi Calm Calm - 0.06 in Snow Light Snow
8:30 AM 26.6 °F 21.2 °F 26.6 °F 100% 29.92 in 1.2 mi WSW 4.6 mph - 0.12 in Snow Light Snow
8:50 AM 26.6 °F 19.1 °F 26.6 °F 100% 29.93 in 0.5 mi West 6.9 mph - 0.39 in Snow Snow
9:10 AM 28.4 °F 21.2 °F 26.6 °F 93% 29.94 in 2.0 mi West 6.9 mph - 0.01 in Snow Light Snow
9:30 AM 28.4 °F 19.7 °F 26.6 °F 93% 29.95 in 1.5 mi West 9.2 mph - 0.06 in Snow Light Snow
9:50 AM 28.4 °F 20.4 °F 23.0 °F 80% 29.94 in 3.0 mi West 8.1 mph 16.1 mph 0.10 in Snow Light Snow
10:10 AM 28.4 °F 15.8 °F 23.0 °F 80% 29.95 in 0.8 mi NW 18.4 mph 23.0 mph 0.22 in Snow Heavy Snow
10:30 AM 26.6 °F 14.3 °F 23.0 °F 86% 29.95 in 0.8 mi WNW 16.1 mph - N/A Snow Snow
10:50 AM 28.4 °F 17.5 °F 21.2 °F 74% 29.94 in 1.2 mi WNW 13.8 mph 24.2 mph N/A Snow Light Snow
11:10 AM 28.4 °F 15.4 °F 21.2 °F 74% 29.93 in 5.0 mi WNW 19.6 mph 24.2 mph N/A Snow Light Snow
11:30 AM 30.2 °F 19.3 °F 19.4 °F 64% 29.93 in 10.0 mi WNW 15.0 mph 23.0 mph N/A   Partly Cloudy
11:50 AM 30.2 °F 17.4 °F 17.6 °F 60% 29.92 in 5.0 mi WNW 20.7 mph 26.5 mph N/A Snow Light Snow
12:10 PM 30.2 °F 19.3 °F 15.8 °F 55% 29.92 in 10.0 mi WNW 15.0 mph 24.2 mph N/A   Partly Cloudy
12:30 PM 30.2 °F 16.8 °F 14.0 °F 51% 29.91 in 7.0 mi NW 23.0 mph 27.6 mph N/A   Clear
12:50 PM 30.2 °F 17.1 °F 14.0 °F 51% 29.91 in 4.0 mi WNW 21.9 mph 31.1 mph N/A   Haze
1:10 PM 28.4 °F 14.1 °F 10.4 °F 47% 29.90 in 6.0 mi NW 24.2 mph 28.8 mph N/A   Haze
1:30 PM 28.4 °F 13.8 °F 10.4 °F 47% 29.89 in 7.0 mi WNW 25.3 mph - N/A   Clear
1:50 PM 28.4 °F 14.4 °F 6.8 °F 40% 29.89 in 6.0 mi NW 23.0 mph 28.8 mph N/A   Haze
2:10 PM 28.4 °F 15.4 °F 5.0 °F 37% 29.88 in 6.0 mi NW 19.6 mph 27.6 mph N/A   Haze
2:50 PM 26.6 °F 13.4 °F 5.0 °F 40% 29.88 in 10.0 mi NW 18.4 mph 25.3 mph N/A   Clear
3:10 PM 26.6 °F 14.3 °F 3.2 °F 37% 29.87 in 10.0 mi NW 16.1 mph 20.7 mph N/A   Clear
3:30 PM 26.6 °F 14.3 °F 3.2 °F 37% 29.87 in 10.0 mi WNW 16.1 mph 25.3 mph N/A   Clear
3:50 PM 26.6 °F 14.7 °F 1.4 °F 34% 29.86 in 9.0 mi WNW 15.0 mph 19.6 mph N/A   Clear
4:10 PM 26.6 °F 15.2 °F 3.2 °F 37% 29.86 in 10.0 mi NW 13.8 mph - N/A   Clear
4:30 PM 26.6 °F 15.2 °F 1.4 °F 34% 29.86 in 10.0 mi NNW 13.8 mph 18.4 mph N/A   Clear
4:50 PM 26.6 °F 15.2 °F -0.4 °F 31% 29.86 in 10.0 mi NNW 13.8 mph 21.9 mph N/A   Clear
5:10 PM 24.8 °F 11.5 °F -0.4 °F 34% 29.85 in 10.0 mi NW 17.3 mph 20.7 mph N/A   Clear
5:30 PM 23.0 °F 13.1 °F -0.4 °F 36% 29.86 in 10.0 mi NNW 9.2 mph 18.4 mph N/A   Clear
5:50 PM 23.0 °F 13.9 °F -0.4 °F 36% 29.86 in 10.0 mi NW 8.1 mph - N/A   Clear
6:10 PM 23.0 °F 15.8 °F -0.4 °F 36% 29.86 in 10.0 mi NNW 5.8 mph - N/A   Clear
6:30 PM 23.0 °F 15.8 °F -0.4 °F 36% 29.86 in 10.0 mi NNW 5.8 mph - N/A   Clear
6:50 PM 21.2 °F 14.9 °F -0.4 °F 39% 29.87 in 10.0 mi NW 4.6 mph - N/A   Clear
7:10 PM 21.2 °F 14.9 °F -0.4 °F 39% 29.87 in 10.0 mi NW 4.6 mph - N/A   Clear
7:30 PM 21.2 °F 14.9 °F -0.4 °F 39% 29.87 in 10.0 mi NW 4.6 mph - N/A   Clear
7:50 PM 19.4 °F 14.3 °F -0.4 °F 42% 29.87 in 10.0 mi WNW 3.5 mph - N/A   Clear
8:10 PM 19.4 °F 12.8 °F -0.4 °F 42% 29.87 in 10.0 mi WNW 4.6 mph - N/A   Clear
8:30 PM 19.4 °F 14.3 °F -0.4 °F 42% 29.88 in 10.0 mi WNW 3.5 mph - N/A   Clear
8:50 PM 17.6 °F 12.3 °F -0.4 °F 45% 29.88 in 10.0 mi NW 3.5 mph - N/A   Clear
9:10 PM 19.4 °F 14.3 °F -0.4 °F 42% 29.88 in 10.0 mi NW 3.5 mph - N/A   Clear
9:30 PM 19.4 °F 14.3 °F -2.2 °F 39% 29.88 in 10.0 mi NW 3.5 mph - N/A   Clear
9:50 PM 19.4 °F - -2.2 °F 39% 29.88 in 10.0 mi Calm Calm - N/A   Clear
10:10 PM 17.6 °F - -4.0 °F 38% 29.88 in 10.0 mi Calm Calm - N/A   Clear
10:30 PM 17.6 °F - -0.4 °F 45% 29.88 in 10.0 mi Calm Calm - N/A   Clear
10:50 PM 14.0 °F - -0.4 °F 53% 29.87 in 10.0 mi Calm Calm - N/A   Clear
11:10 PM 15.8 °F - -0.4 °F 49% 29.86 in 10.0 mi Calm Calm - N/A   Clear
11:30 PM 14.0 °F - -0.4 °F 53% 29.85 in 10.0 mi Calm Calm - N/A   Clear
11:50 PM 14.0 °F - 1.4 °F 57% 29.85 in 10.0 mi Calm Calm - N/A   Clear